Total_Precipitation_Accumulation
1.01 1.02 0.86 1.32 1.84 1.92 2.32 2.37 3.16 3.23 2.70 2.25 2.38 2.63 2.35 2.04 1.79 1.58 1.64 1.36 1.60 1.70 1.76 1.72 1.39 1.30 1.46 1.30 1.63 1.99 2.03 2.02 2.33 2.89 3.11 3.05 3.36 3.52 3.28 3.62 4.09 4.28 4.57 4.77
1.12 0.81 0.69 1.46 1.78 1.50 1.49 1.90 2.31 1.73 2.40 1.82 1.63 1.59 1.63 1.55 1.36 1.18 1.17 0.94 1.09 1.01 1.18 1.37 1.22 1.12 1.25 1.33 1.28 1.48 1.66 1.98 1.94 1.83 1.99 2.38 2.53 2.60 2.42 2.97 3.51 3.61 4.21 4.17
1.35 0.59 1.03 2.37 2.02 1.24 1.37 1.02 0.89 1.14 1.81 1.21 1.09 0.94 1.16 1.09 1.00 0.84 0.82 0.76 1.01 0.94 0.74 0.76 1.03 1.07 1.14 1.36 1.31 1.23 1.40 1.51 1.57 1.79 2.16 2.26 2.63 2.62 2.69 2.71 3.01 3.34 3.65 3.43
1.52 1.32 3.14 2.53 0.99 0.72 0.57 0.41 0.44 0.44 0.50 0.60 0.60 0.60 0.84 0.91 0.92 0.94 0.85 0.89 1.16 1.22 0.94 0.74 0.81 0.84 0.89 0.95 1.11 1.29 1.28 1.47 1.57 1.51 1.64 1.90 2.14 2.38 2.92 3.41 3.44 3.26 3.18 3.25
2.07 1.59 2.02 1.61 0.54 0.49 0.47 0.41 0.26 0.20 0.29 0.30 0.24 0.32 0.73 0.95 0.66 0.83 0.74 0.59 0.48 0.68 0.94 0.92 0.84 0.77 0.71 0.78 0.79 0.83 1.11 1.21 1.31 1.52 1.69 1.77 1.90 2.29 2.42 2.65 2.67 2.81 2.95 2.92
2.46 2.00 2.49 1.36 0.23 0.17 0.43 0.92 0.27 0.13 0.14 0.16 0.21 0.48 0.48 0.56 0.59 0.73 0.46 0.24 0.16 0.20 0.31 0.47 0.71 1.02 0.98 0.91 0.94 0.89 0.95 1.13 1.26 1.42 1.76 2.10 2.34 2.30 2.10 2.15 2.50 2.61 2.83 3.13
2.94 2.82 2.12 0.95 0.36 0.21 1.25 1.55 0.38 0.28 0.21 0.16 0.25 0.36 0.48 0.36 0.60 0.74 0.22 0.09 0.06 0.08 0.17 0.27 0.34 0.52 0.81 0.93 0.98 1.06 0.96 0.99 1.29 1.60 1.69 1.90 2.05 2.21 2.31 2.28 2.22 2.35 2.61 2.84
2.41 2.81 2.61 0.83 0.63 0.98 1.21 0.52 0.23 0.20 0.25 0.30 0.32 0.44 0.62 0.63 0.63 0.40 0.24 0.22 0.21 0.13 0.09 0.10 0.17 0.28 0.52 0.79 0.74 0.73 0.80 0.80 0.89 1.03 1.30 1.45 1.66 1.85 1.82 1.82 1.90 1.91 1.99 2.29
1.53 1.96 1.74 1.34 1.12 0.66 0.39 0.48 0.40 0.25 0.29 0.84 0.93 0.99 0.98 0.99 0.72 0.51 0.31 0.32 0.28 0.20 0.23 0.19 0.26 0.37 0.62 0.68 0.68 0.77 0.79 0.86 0.93 0.93 1.00 1.16 1.28 1.37 1.37 1.40 1.42 1.45 1.46 1.68
1.67 1.31 1.03 1.46 1.00 0.60 0.47 0.54 0.45 0.25 0.26 0.60 1.06 1.17 1.38 1.21 1.12 0.75 0.36 0.30 0.36 0.23 0.22 0.30 0.73 0.83 0.64 0.43 0.49 0.57 0.72 0.87 0.96 0.91 1.01 0.98 0.96 0.92 0.93 1.06 1.10 1.22 1.35 1.51
1.54 1.17 1.12 1.10 1.25 0.69 0.43 0.40 0.40 0.19 0.18 0.28 0.52 0.65 1.00 0.98 0.83 0.99 0.74 0.37 0.45 0.32 0.31 0.42 0.62 0.66 0.53 0.53 0.56 0.67 0.61 0.77 0.83 0.83 0.79 0.72 0.86 1.05 1.01 1.33 1.36 1.32 1.50 1.57
1.61 1.53 1.45 1.29 1.10 1.13 0.74 0.49 0.42 0.52 0.41 0.46 0.50 0.44 0.65 0.58 0.74 0.69 0.94 0.77 0.68 0.56 0.48 0.46 0.33 0.46 0.59 0.67 0.60 0.75 0.66 0.58 0.82 0.76 0.73 0.74 0.74 1.09 1.56 1.59 1.54 1.61 1.68 1.70
0.71 0.79 1.15 1.18 0.72 0.41 0.34 0.22 0.14 0.33 0.28 0.34 0.56 0.50 0.89 0.49 0.73 0.86 1.03 0.82 0.75 0.79 0.76 0.64 0.45 0.48 0.71 0.78 0.68 0.84 0.86 0.77 0.77 0.82 0.75 0.75 0.88 0.91 1.13 1.67 1.76 1.91 2.05 2.19
0.14 0.24 0.30 0.21 0.17 0.04 0.02 0.02 0.02 0.05 0.10 0.16 0.30 0.49 1.29 0.88 0.90 0.91 0.90 0.68 0.74 0.83 1.01 1.09 0.76 0.75 0.99 1.25 1.21 1.29 1.44 1.64 1.35 1.24 1.19 1.19 1.31 1.59 1.69 1.83 2.18 2.52 2.55 2.43
0.07 0.08 0.07 0.05 0.03 0.02 0.02 0.02 0.02 0.03 0.08 0.18 0.20 0.32 0.62 1.07 1.27 1.08 0.90 0.82 0.90 0.98 1.22 1.28 1.01 1.01 0.99 1.16 1.37 1.46 1.58 1.79 1.87 1.82 1.89 1.87 1.65 1.70 1.79 1.73 1.80 1.88 1.75 1.87
0.11 0.08 0.08 0.10 0.11 0.12 0.11 0.12 0.16 0.28 0.33 0.24 0.19 0.35 0.62 1.25 1.65 1.35 0.93 0.72 0.75 0.94 0.98 0.87 0.98 1.33 1.30 1.31 1.51 1.69 1.70 1.87 1.89 1.87 1.92 1.76 1.64 1.43 1.39 1.36 1.27 1.15 1.15 1.36
0.20 0.16 0.18 0.17 0.17 0.23 0.29 0.36 0.46 0.45 0.36 0.36 0.41 0.44 0.87 1.38 1.28 0.99 0.95 0.83 0.93 1.09 1.19 1.20 1.51 1.55 1.63 1.73 1.75 1.77 1.65 1.57 1.43 1.29 1.39 1.43 1.37 1.33 1.27 1.30 1.25 1.11 1.19 1.29
0.24 0.24 0.26 0.29 0.38 0.48 0.47 0.36 0.29 0.32 0.40 0.44 0.44 0.45 0.88 1.32 1.36 1.06 0.98 0.82 0.79 0.97 1.23 1.46 1.41 1.39 1.47 1.55 1.22 1.09 1.10 0.99 0.92 0.89 0.93 1.09 1.18 1.13 1.05 1.05 1.06 1.00 1.03 1.11
0.25 0.35 0.41 0.49 0.51 0.39 0.32 0.35 0.41 0.43 0.52 0.59 0.62 0.80 1.12 1.44 1.43 1.29 1.12 0.87 0.85 0.81 1.08 0.94 0.85 0.66 0.68 0.84 0.84 0.72 0.73 0.74 0.72 0.73 0.73 0.75 0.78 0.88 1.01 1.09 1.10 1.04 1.01 1.07
0.44 0.50 0.36 0.29 0.31 0.38 0.46 0.60 0.62 0.69 0.88 0.80 0.83 0.95 1.20 1.62 1.30 0.97 0.73 0.64 0.65 0.67 0.54 0.44 0.35 0.37 0.40 0.49 0.60 0.67 0.80 0.78 0.77 0.80 0.79 0.74 0.72 0.75 0.84 1.07 1.16 1.28 1.21 1.01
0.73 0.70 0.83 0.74 0.81 0.96 0.85 0.88 0.70 0.79 0.98 0.84 0.71 0.82 0.91 1.08 0.96 0.67 0.47 0.48 0.60 0.44 0.34 0.29 0.22 0.21 0.20 0.32 0.35 0.35 0.54 0.83 0.95 0.96 0.99 1.04 1.01 0.95 0.96 0.99 1.02 1.10 1.16 1.11
0.97 0.94 1.03 0.93 0.84 1.10 1.08 0.89 0.66 0.64 0.64 0.63 0.72 0.78 0.64 0.66 0.65 0.52 0.42 0.40 0.39 0.27 0.17 0.14 0.14 0.14 0.15 0.22 0.23 0.24 0.25 0.40 0.62 0.77 0.88 1.04 1.20 1.21 1.21 1.18 1.15 1.05 0.99 0.96
0.84 0.82 0.76 0.71 0.66 0.68 0.75 0.71 0.65 0.49 0.47 0.51 0.51 0.57 0.58 0.59 0.57 0.50 0.47 0.41 0.27 0.24 0.16 0.14 0.18 0.15 0.18 0.26 0.30 0.31 0.33 0.45 0.56 0.65 0.79 0.95 1.09 1.17 1.18 1.13 1.07 1.05 1.06 0.98
0.66 0.60 0.55 0.49 0.36 0.27 0.35 0.51 0.46 0.45 0.42 0.38 0.29 0.29 0.30 0.40 0.51 0.42 0.32 0.29 0.30 0.34 0.33 0.32 0.31 0.29 0.37 0.49 0.52 0.50 0.52 0.63 0.66 0.62 0.74 0.94 1.00 0.96 0.97 0.97 0.92 0.89 0.92 0.93
0.48 0.47 0.40 0.34 0.33 0.40 0.30 0.25 0.17 0.18 0.21 0.30 0.36 0.39 0.37 0.30 0.40 0.37 0.27 0.28 0.26 0.27 0.32 0.38 0.45 0.50 0.63 0.69 0.64 0.58 0.60 0.68 0.66 0.67 0.73 0.76 0.71 0.73 0.75 0.76 0.80 0.84 0.77 0.74
0.37 0.35 0.34 0.30 0.29 0.25 0.21 0.16 0.19 0.21 0.18 0.27 0.37 0.32 0.27 0.21 0.20 0.22 0.25 0.29 0.30 0.34 0.38 0.40 0.42 0.47 0.51 0.53 0.52 0.48 0.52 0.55 0.59 0.62 0.59 0.54 0.51 0.55 0.56 0.63 0.70 0.67 0.63 0.64
0.34 0.31 0.24 0.22 0.23 0.22 0.23 0.25 0.27 0.32 0.34 0.34 0.32 0.33 0.28 0.27 0.24 0.22 0.25 0.26 0.29 0.36 0.44 0.48 0.49 0.53 0.51 0.49 0.47 0.46 0.46 0.48 0.50 0.49 0.49 0.51 0.52 0.53 0.54 0.54 0.56 0.59 0.56 0.53